STARLINK-32673 (63000 NORAD) Tracking and Keplerian Element Data

This shows tracking and keplerian element data for the satellite.

Feedback or suggestion? Click here.




ElementValue
Catalog63000
NameSTARLINK-32673
Epoch Orbit4890
Epoch Day353.98053449
Epoch Year2025
RAAN233.5865
Inclination42.9981
Eccentricity5.9E-05
Argument of Perigee124.6161
Mean Anonmoly235.4746
Mean Motion15.27587248
Decay Rate0.00014017
L11 63000U 25031V 25353.98053449 .00014017 00000+0 51779-3 0 9994
L22 63000 42.9981 233.5865 0000590 124.6161 235.4746 15.27587248 48902



Live tracking and technical data element details for STARLINK-32673 (NORAD 63000). STARLINK-32673 can be tracked NOW for your location showing map with azimuth and elevation plus other details from your city location.







IsCatalogInMostPopularTable: catalog: 63000, numindb: 2
Update: records affected: 1



GetName: 63000 STARLINK-32673

Hit Count: updated at: Mon, 09 Feb 2026 07:56:51 GMT